Regional Weather Roundup
Issued by NWS

Home | Current Version | Previous Version | Text Only | Print | Product List | Glossary On
Versions: 1 2 3 4 5 6 7 8 9 10 11 12 13 14 15 16 17 18 19 20 21 22 23 24 25 26 27 28 29 30 31 32 33 34 35 36 37 38 39 40 41 42 43 44 45 46 47 48 49 50
000
ASUS43 KBIS 201910
RWRND

NORTH DAKOTA REGIONAL WEATHER ROUNDUP
NATIONAL WEATHER SERVICE BISMARCK ND
200 PM CDT FRI APR 20 2018

NOTE: "FAIR" INDICATES FEW OR NO CLOUDS BELOW 12,000 FEET WITH NO
SIGNIFICANT WEATHER AND/OR OBSTRUCTIONS TO VISIBILITY.


NDZ001>003-009>011-017-202000-
NORTHWEST NORTH DAKOTA

CITY           SKY/WX    TMP DP  RH WIND       PRES   REMARKS
WILLISTON      SUNNY     61  32  33 SE15G21   30.16F
MINOT          CLOUDY    56  31  38 SE12      30.26F
MINOT AFB      SUNNY     57  31  38 S15       30.24F
$$

NDZ018>021-031>035-040>046-202000-
SOUTHWEST NORTH DAKOTA

CITY           SKY/WX    TMP DP  RH WIND       PRES   REMARKS
BISMARCK       MOSUNNY   60  30  32 S16G23    30.26F
DICKINSON      SUNNY     60  28  29 SE17      30.14F
GARRISON         N/A     55  35  47 SE15      30.23F
HETTINGER ARPT PTSUNNY   53  29  39 SE16G26   30.17F
$$

NDZ004>008-012>016-024-026-027-054-202000-
NORTHEAST NORTH DAKOTA

CITY           SKY/WX    TMP DP  RH WIND       PRES   REMARKS
GRAND FORKS    FAIR      51  33  50 S10       30.40S
GRND FRKS AFB  FAIR      52  28  40 S10       30.39F
DEVILS LAKE    FAIR      52  23  32 SE12      30.35F
$$

NDZ022-023-025-028>030-036>039-047>053-202000-
SOUTHEAST NORTH DAKOTA

CITY           SKY/WX    TMP DP  RH WIND       PRES   REMARKS
FARGO          FAIR      54  33  45 SE14      30.40F
JAMESTOWN      MOSUNNY   54  33  45 SE13      30.33F
$$




USA.gov is the U.S. government's official web portal to all federal, state and local government web resources and services.